Regional Weather Roundup
Issued by NWS

Home | Current Version | Previous Version | Text Only | Print | Product List | Glossary Off
Versions: 1 2 3 4 5 6 7 8 9 10 11 12 13 14 15 16 17 18 19 20 21 22 23 24 25 26 27 28 29 30 31 32 33 34 35 36 37 38 39 40 41 42 43 44 45 46 47 48 49 50

153
ASUS44 KJAN 220103
RWRMS

MISSISSIPPI HOURLY WEATHER ROUNDUP
NATIONAL WEATHER SERVICE JACKSON MS
800 PM CDT MON JUL 21 2014

NOTE: "FAIR: INDICATES FEW OR NO CLOUDS BELOW 12,000 FEET WITH NO
SIGNIFICANT WEATHER AND/OR OBSTRUCTIONS TO VISIBILITY.

MSZ001>002-007>008-010>013-018>021-025>028-034>036-220200-
NORTHWEST MISSISSIPPI

CITY           SKY/WX    TMP DP  RH WIND       PRES   REMARKS
CLARKSDALE     FAIR      79  73  83 CALM      30.05R
CLEVELAND      FAIR      77  74  90 N3        30.03R
GREENWOOD      CLEAR     78  71  79 N3        30.02S
GREENVILLE     CLEAR     79  73  82 N5        30.02R
GRENADA        FAIR      75  72  88 N3        30.03S
OLIVE BRANCH   PTCLDY    79  72  78 CALM      30.06R
OXFORD         FAIR      77  68  73 CALM      30.06S
TUNICA         CLEAR     77  70  78 NE3       30.05S
$$

MSZ003>006-009-014>017-022>024-029>033-037>039-220200-
NORTHEAST MISSISSIPPI

CITY           SKY/WX    TMP DP  RH WIND       PRES   REMARKS
BELMONT        FAIR      78  72  79 CALM      30.04S
COLUMBUS AFB   PTCLDY    81  72  75 NW5       30.01F
CORINTH        FAIR      81  70  69 CALM      30.04R
GOLDN TRIANGLE PTCLDY    82  72  69 N5        30.02S
STARKVILLE     FAIR      77  70  78 CALM      30.02S
TUPELO         CLEAR     81  68  64 N3        30.03R
$$

MSZ040-058-220200-
CENTRAL MISSISSIPPI

CITY           SKY/WX    TMP DP  RH WIND       PRES   REMARKS
JACKSON INTL   CLEAR     80  71  74 CALM      30.01S
JACKSON HAWKNS PTCLDY    83  69  62 N5        30.02R
MERIDIAN KEY   MOCLDY    84  66  54 NE5       30.00R
MERIDIAN NAS   MOCLDY    83  69  62 NE3       30.00S
RAYMOND        FAIR      79  73  83 CALM      30.02R
VICKSBURG      CLEAR     80  72  76 N3        30.01S
$$

MSZ059>079-220200-
SOUTH MISSISSIPPI

CITY           SKY/WX    TMP DP  RH WIND       PRES   REMARKS
BROOKHAVEN     FAIR      77  73  88 CALM      30.04R
COLUMBIA       FAIR      79  73  83 CALM      29.99S
HATTIESBURG    CLEAR     81  71  71 CALM      30.00R
MCCOMB         CLEAR     81  70  69 N3        30.01S
NATCHEZ        CLEAR     81  72  74 CALM      30.02R
PINE BELT      CLEAR     81  72  74 CALM      30.02R
$$

MSZ080>082-220200-
COASTAL MISSISSIPPI

CITY           SKY/WX    TMP DP  RH WIND       PRES   REMARKS
BAY ST LOUIS   CLEAR    N/A N/A N/A CALM      29.99R
BILOXI         CLEAR     84  70  63 VRB1      29.98S
PASCAGOULA     CLEAR     81  77  88 CALM      29.97S
GULFPORT       CLEAR     86  70  58 W3        29.97S HX  90
$$



USA.gov is the U.S. government's official web portal to all federal, state and local government web resources and services.